Regional Weather Roundup
Issued by NWS State College, PA

Home | Current Version | Previous Version | Text Only | Print | Product List | Glossary Off
Versions: 1 2 3 4 5 6 7 8 9 10 11 12 13 14 15 16 17 18 19 20 21 22 23 24 25 26 27 28 29 30 31 32 33 34 35 36 37 38 39 40 41 42 43 44 45 46 47 48 49 50

000
ASUS41 KCTP 260810
RWRCTP

REGIONAL WEATHER ROUNDUP
NATIONAL WEATHER SERVICE STATE COLLEGE PA
400 AM EDT TUE MAY 26 2015

Note: "fair" indicates few or no clouds below 12,000 feet with no
significant weather and/or obstructions to visibility.

* = STATION THAT DOES NOT REPORT PRECIPITATION /E.G. RAIN...SNOW...ETC/
    THUNDER OR FOG.

PAZ002>004-007>009-013>016-020>023-029>032-260900-
WESTERN PENNSYLVANIA

CITY           SKY/WX    TMP DP  RH WIND       PRES   REMARKS
ERIE           PTCLDY    70  59  68 SW9       30.08S
MEADVILLE      CLEAR     65  59  81 S5        30.13S
FRANKLIN*      PTCLDY    66  57  72 SW3       30.14F
NEW CASTLE     PTSUNNY   70  64  81 SW12      30.15R
BEAVER COUNTY  NOT AVBL
BUTLER*        MOCLDY    70  61  73 SW7       30.17S
PITTSBURGH INT CLOUDY    71  61  70 W8        30.16R
PITTSBURGH     CLOUDY    68  60  75 S7        30.15S
INDIANA*       MOCLDY    66  66 100 CALM      30.21S FOG
LATROBE        MOCLDY    68  64  88 CALM      30.18S
WASHINGTON CO* CLOUDY    64  63  94 SW3       30.19R
$$

PAZ004>006-010>012-017>019-024>028-033>037-041-042-045-046-049>053-260900-
CENTRAL PENNSYLVANIA

CITY           SKY/WX    TMP DP  RH WIND       PRES   REMARKS
BRADFORD       PTCLDY    66  59  78 VRB3      30.16S
DUBOIS         MOCLDY    69  60  73 S3        30.16S
CLEARFIELD     CLOUDY    66  59  78 W3        30.17F
JOHNSTOWN      PTCLDY    66  54  65 SW6       30.21S
ALTOONA        MOCLDY    67  57  70 W3        30.19S
STATE COLLEGE  CLOUDY    68  60  74 CALM      30.16F
WILLIAMSPORT   MOCLDY    69  59  70 CALM      30.13F
SELINSGROVE    CLEAR     67  58  72 CALM      30.16S
FT INDIANTOWN  CLEAR     59  58  99 NE2       30.17F
CAPITAL CITY   CLEAR     64  59  83 CALM      30.16F
HARRISBURG     PTCLDY    67  61  81 SE5       30.16S
YORK           CLEAR     61  57  87 E3        30.17F
$$

PAZ038>040-043-044-047-048-054-055-060>062-067>071-260900-
EASTERN PENNSYLVANIA

CITY           SKY/WX    TMP DP  RH WIND       PRES   REMARKS
SCRANTON       PTCLDY    69  57  65 SW5       30.16S
MOUNT POCONO   CLEAR     63  56  78 W8        30.20F
ALLENTOWN      CLEAR     64  57  78 CALM      30.18S
QUAKERTOWN*    SUNNY     64  57  77 SW6       30.20S
READING        CLEAR     66  58  75 CALM      30.18R
LANCASTER      CLEAR     64  58  80 S3        30.18F
COATESVILLE    MOSUNNY   63  59  88 CALM      30.21S
POTTSTOWN      CLEAR     65  58  78 S3        30.20F
BLUE BELL      CLEAR     64  55  72 SW5       30.19F
DOYLESTOWN     CLEAR     63  55  75 S6        30.19S
WILLOW GROVE   NOT AVBL
NORTH PHILA    CLEAR     68  54  60 SW9       30.21S
PHILADELPHIA   PTCLDY    66  56  70 S8        30.21S
$$



USA.gov is the U.S. government's official web portal to all federal, state and local government web resources and services.